Date,TemperatureHighF,TemperatureAvgF,TemperatureLowF,DewpointHighF,DewpointAvgF,DewpointLowF,HumidityHigh,HumidityAvg,HumidityLow,PressureMaxIn,PressureMinIn,WindSpeedMaxMPH,WindSpeedAvgMPH,GustSpeedMaxMPH,PrecipitationSumIn
2013-3-1,46,39,35,25,20,16,64,47,33,29.74,29.57,6,1,6,0.00
2013-3-2,42,36,31,22,16,14,66,45,34,29.74,29.68,6,1,6,2.47
2013-3-3,40,33,29,15,11,8,51,39,31,29.74,29.62,8,1,8,0.00
2013-3-4,42,34,27,14,10,6,48,37,29,29.89,29.74,7,2,7,0.00
2013-3-5,50,39,31,21,16,12,49,39,28,30.01,29.89,6,1,6,2.47
2013-3-6,43,40,37,31,24,17,71,52,41,29.95,29.83,16,3,16,2.47
2013-3-7,40,37,34,32,25,17,85,62,42,30.10,29.89,6,1,8,7.41
2013-3-8,40,35,32,31,28,18,86,74,47,30.22,30.01,5,0,5,17.29
2013-3-9,56,41,33,21,16,11,53,38,17,30.36,30.19,8,1,8,2.47
2013-3-10,51,41,33,31,26,15,81,57,37,30.42,30.33,5,0,5,0.00
2013-3-11,56,47,39,45,36,30,83,69,41,30.36,30.10,6,0,6,0.00
2013-3-12,58,51,44,58,46,30,98,84,53,30.10,29.62,5,0,13,2.47
2013-3-13,52,43,37,32,23,15,78,48,26,29.86,29.77,9,1,9,2.47
2013-3-14,43,35,30,17,6,-3,44,30,18,29.95,29.83,11,2,11,0.00
2013-3-15,46,38,29,22,11,1,43,33,25,29.98,29.68,9,1,9,0.00
2013-3-16,42,36,33,34,23,12,92,61,33,29.89,29.74,4,0,4,0.00
2013-3-17,39,34,29,31,20,16,87,57,46,30.33,29.89,6,1,6,0.00
2013-3-18,38,32,27,33,21,11,100,66,48,30.45,30.01,8,1,8,0.00
2013-3-19,47,38,33,38,34,20,100,87,51,30.01,29.65,6,1,7,0.00
2013-3-20,47,38,31,26,21,18,59,50,42,29.86,29.74,9,1,9,0.00
2013-3-21,42,35,31,30,21,14,90,58,40,29.80,29.59,5,0,5,0.00
2013-3-22,43,34,27,24,18,13,65,53,45,29.86,29.71,8,1,8,0.00
2013-3-23,48,39,32,27,22,19,63,51,41,29.92,29.80,13,1,13,0.00
2013-3-24,49,39,32,28,23,18,58,52,44,29.95,29.65,8,1,8,0.00
2013-3-25,40,38,36,38,31,25,99,76,56,29.65,29.42,10,1,10,0.00
2013-3-26,53,43,36,34,30,26,88,61,43,29.83,29.54,6,0,6,0.00
2013-3-27,55,43,35,32,27,22,69,55,37,29.98,29.83,8,1,8,0.00
2013-3-28,51,43,36,35,30,28,73,59,45,30.13,29.95,6,1,6,0.00
2013-3-29,55,46,38,33,30,28,67,53,42,30.16,30.07,5,1,6,0.00
2013-3-30,61,47,37,33,28,24,70,50,31,30.19,30.07,8,1,8,0.00
2013-3-31,57,46,36,47,35,24,100,67,44,30.13,29.62,6,1,6,0.00